Glens Falls, NY

10:06 AM EDT on September 23, 2019 (GMT -0400)
Bennett Memorial

Weather History for KGFL - August, 2019

Change the Weather History Date:

Thursday, August 22, 2019

  Actual Average Record
Temperature  
Mean Temperature 69 °F 66 °F  
Max Temperature 82 °F 78 °F 94 °F (1916)
Min Temperature 55 °F 54 °F 36 °F (1982)
Degree Days  
Heating Degree Days 0 2  
Month to date heating degree days 5 24  
Since 1 June heating degree days 75 135  
Since 1 July heating degree days 5 45  
Cooling Degree Days 4 3  
Month to date cooling degree days 90 82  
Year to date cooling degree days 386 302  
Since 1 June cooling degree days 377 290  
Growing Degree Days 21 (Base 50)    
Moisture  
Dew Point 65 °F    
Average Humidity 74    
Maximum Humidity 97    
Minimum Humidity 51    
Precipitation  
Precipitation 0.00 in 0.10 in 2.13 in (2010)
Month to date precipitation 2.83 2.75  
Year to date precipitation 28.77 24.88  
Sea Level Pressure  
Sea Level Pressure 29.84 in    
Wind  
Wind Speed 6 mph (SSW)    
Max Wind Speed 15 mph    
Max Gust Speed 21 mph    
Visibility 6 miles    
Events      
T = Trace of Precipitation, MM = Missing Value Source: NWS Daily Summary

Daily Weather History Graph

Daily Weather History Graph

Search for Another Location

Airport or City:

Astronomy

Aug. 22, 2019 Rise Set
Actual Time 6:07 AM EDT 7:46 PM EDT
Civil Twilight 5:36 AM EDT 8:16 PM EDT
Nautical Twilight 5:00 AM EDT 8:53 PM EDT
Astronomical Twilight 4:20 AM EDT 9:32 PM EDT
Moon 11:23 PM EDT (8/22) 12:51 PM EDT (8/22)
Length of Visible Light 14h 40m
Length of Day
13h 39m
Waning Gibbous, 60% of the Moon is Illuminated
Aug 22
Waning Gibbous
Aug 23
Last Quarter
Aug 30
New
Sep 5
First Quarter
Sep 14
Full

Hourly Weather History & Observations

Time (EDT) Temp. Heat Index Dew Point Humidity Pressure Visibility Wind Dir Wind Speed Gust Speed Precip Events Conditions
12:07 AM 69.1 °F - 68.0 °F 96% 29.84 in 3.0 mi SW 6.9 mph - N/A   Overcast
12:17 AM 69.1 °F - 68.0 °F 96% 29.83 in 1.8 mi SSW 4.6 mph - N/A   Overcast
12:32 AM 69.1 °F - 68.0 °F 96% 29.82 in 3.0 mi South 4.6 mph - N/A   Overcast
12:53 AM 69.1 °F - 68.0 °F 96% 29.82 in 7.0 mi SSW 6.9 mph - N/A   Overcast
1:08 AM 69.1 °F - 68.0 °F 96% 29.82 in 8.0 mi SSW 8.1 mph - N/A   Overcast
1:29 AM 69.1 °F - 68.0 °F 96% 29.82 in 9.0 mi South 5.8 mph - N/A   Overcast
1:53 AM 69.1 °F - 68.0 °F 96% 29.82 in 5.0 mi South 4.6 mph - N/A   Overcast
2:21 AM 69.1 °F - 68.0 °F 96% 29.82 in 4.0 mi South 3.5 mph - N/A   Overcast
2:38 AM 69.1 °F - 66.9 °F 93% 29.82 in 10.0 mi SSW 6.9 mph - N/A   Overcast
2:53 AM 69.1 °F - 66.9 °F 93% 29.82 in 10.0 mi South 6.9 mph - N/A   Overcast
3:15 AM 69.1 °F - 66.9 °F 93% 29.82 in 8.0 mi Calm Calm - N/A   Overcast
3:53 AM 69.1 °F - 66.9 °F 93% 29.81 in 7.0 mi Calm Calm - N/A   Overcast
4:00 AM 69.1 °F - 66.9 °F 93% 29.81 in 8.0 mi Calm Calm - N/A   Overcast
4:34 AM 68.0 °F - 66.9 °F 96% 29.80 in 10.0 mi SSE 5.8 mph - N/A   Overcast
4:53 AM 68.0 °F - 66.9 °F 96% 29.79 in 10.0 mi SSE 6.9 mph - N/A   Overcast
5:11 AM 68.0 °F - 66.9 °F 96% 29.80 in 2.5 mi Calm Calm - N/A   Overcast
5:22 AM 68.0 °F - 66.9 °F 96% 29.80 in 1.5 mi SSE 3.5 mph - N/A   Overcast
5:32 AM 68.0 °F - 66.9 °F 96% 29.80 in 1.0 mi South 4.6 mph - N/A   Overcast
5:43 AM 68.0 °F - 66.9 °F 96% 29.81 in 0.8 mi South 4.6 mph - N/A   Mist
5:53 AM 68.0 °F - 66.9 °F 96% 29.80 in 1.0 mi SSW 4.6 mph - N/A   Mist
6:17 AM 68.0 °F - 66.9 °F 96% 29.81 in 0.8 mi Calm Calm - N/A   Mist
6:46 AM 68.0 °F - 66.9 °F 96% 29.83 in 1.8 mi South 4.6 mph - N/A   Overcast
6:53 AM 68.0 °F - 66.9 °F 96% 29.83 in 2.5 mi South 4.6 mph - N/A   Overcast
7:04 AM 68.0 °F - 66.9 °F 96% 29.84 in 0.8 mi South 5.8 mph - N/A   Overcast
7:16 AM 68.0 °F - 66.9 °F 96% 29.84 in 1.2 mi South 6.9 mph - N/A   Overcast
7:44 AM 68.0 °F - 66.9 °F 96% 29.84 in 1.0 mi South 6.9 mph - N/A   Overcast
7:51 AM 68.0 °F - 66.2 °F 94% 29.84 in 0.8 mi South 5.8 mph - N/A   Overcast
7:53 AM 68.0 °F - 66.9 °F 96% 29.84 in 0.8 mi SSW 4.6 mph - N/A   Overcast
8:05 AM 68.0 °F - 66.9 °F 96% 29.84 in 1.0 mi South 4.6 mph - N/A   Overcast
8:33 AM 68.0 °F - 66.9 °F 96% 29.84 in 3.0 mi North - - N/A   Overcast
8:53 AM 69.1 °F - 66.9 °F 93% 29.83 in 8.0 mi South 8.1 mph - N/A   Overcast
9:23 AM 69.1 °F - 66.9 °F 93% 29.85 in 10.0 mi SSW 5.8 mph - N/A   Overcast
9:53 AM 71.1 °F - 68.0 °F 90% 29.84 in 10.0 mi South 6.9 mph - N/A   Overcast
10:32 AM 75.0 °F - 69.1 °F 82% 29.85 in 10.0 mi South 9.2 mph - N/A   Mostly Cloudy
10:43 AM 75.0 °F - 69.1 °F 82% 29.85 in 10.0 mi South 5.8 mph - N/A   Scattered Clouds
10:53 AM 75.9 °F - 69.1 °F 79% 29.84 in 10.0 mi Variable 4.6 mph - N/A   Partly Cloudy
11:53 AM 81.0 °F 82.7 °F 64.9 °F 58% 29.84 in 10.0 mi SW 8.1 mph - N/A   Partly Cloudy
12:53 PM 80.1 °F 81.9 °F 64.9 °F 60% 29.84 in 10.0 mi SW 9.2 mph 17.3 mph N/A   Clear
1:53 PM 81.0 °F 81.6 °F 60.1 °F 49% 29.84 in 10.0 mi WSW 10.4 mph - N/A   Partly Cloudy
3:53 PM 78.1 °F - 59.0 °F 52% 29.84 in 10.0 mi SW 8.1 mph - N/A   Clear
4:53 PM 75.9 °F - 57.9 °F 54% 29.85 in 10.0 mi Variable 3.5 mph - N/A   Clear
5:53 PM 73.9 °F - 59.0 °F 59% 29.85 in 10.0 mi WSW 5.8 mph - N/A   Clear
6:53 PM 72.0 °F - 57.9 °F 61% 29.86 in 10.0 mi SW 5.8 mph - N/A   Clear
7:53 PM 71.1 °F - 55.9 °F 59% 29.87 in 10.0 mi SW 6.9 mph - N/A   Clear
8:53 PM 70.0 °F - 55.9 °F 61% 29.88 in 10.0 mi West 4.6 mph - N/A   Clear
9:53 PM 66.9 °F - 53.1 °F 61% 29.90 in 10.0 mi WSW 3.5 mph - N/A   Clear
10:53 PM 61.0 °F - 55.0 °F 81% 29.91 in 10.0 mi NW 4.6 mph - N/A   Clear
11:53 PM 59.0 °F - 53.1 °F 81% 29.93 in 10.0 mi NW 3.5 mph - N/A   Clear